Temp
15 15 15 15 15 15 15 15 15 15 15 15 15 15 15 14 14 14 14 14 14 14 14 14 14 14 14 14 14 13 13 13 13 13 13 13 13 13 13 12 12 12 11
15 15 15 15 15 15 15 15 15 15 14 14 15 15 15 14 14 13 13 13 13 13 13 14 14 14 14 14 14 13 13 13 13 13 13 13 13 13 13 13 12 12 12
15 15 15 15 15 15 15 15 15 14 14 14 14 14 14 14 14 14 13 13 13 13 13 13 13 14 14 13 13 13 13 13 13 13 13 13 13 13 14 14 13 13 13
14 15 15 15 15 15 15 14 14 14 14 13 14 14 14 13 13 13 13 13 13 13 13 13 13 13 14 14 14 13 13 13 13 13 13 13 13 13 13 13 13 13 13
14 14 14 14 15 15 14 14 14 14 14 13 13 13 13 13 13 13 13 13 13 13 13 13 13 13 14 14 14 14 14 13 13 13 13 13 13 13 13 13 13 13 13
13 14 14 14 14 14 14 14 14 14 13 14 14 13 13 13 13 13 13 13 13 13 13 13 13 13 14 13 13 13 13 13 13 13 13 13 13 13 13 13 13 13 12
12 13 13 14 13 14 13 14 14 14 14 14 13 13 14 13 13 14 13 13 13 13 13 13 13 13 13 13 13 13 13 13 13 13 12 13 13 12 13 13 13 12 12
13 12 13 13 13 13 13 14 14 14 14 14 13 13 13 13 13 14 14 14 14 14 14 13 13 13 13 13 13 13 12 13 13 12 12 12 12 12 11 12 12 12 12
13 13 12 13 13 13 13 13 13 14 14 14 14 13 12 13 13 13 13 13 13 13 14 13 13 13 12 12 12 12 12 12 12 12 12 13 12 12 12 12 12 11 11
11 12 13 12 12 12 13 13 13 13 14 14 14 13 13 13 12 12 12 12 12 12 12 12 13 13 13 13 12 12 12 12 12 11 13 12 11 12 12 11 11 11 10
10 11 11 11 11 12 13 13 13 13 13 13 13 13 13 12 12 11 11 11 11 10 11 12 12 12 13 12 11 11 11 11 11 11 11 11 11 11 10 10 10 10 11
10 10 10 10 11 11 12 12 13 13 13 13 13 12 12 12 12 10 10 10 11 11 11 11 11 11 11 12 11 10 10 10 10 10 10 10 10 10 10 10 10 10 11
9 10 10 10 10 11 11 12 12 12 12 12 12 12 12 11 11 10 10 10 10 10 11 11 12 10 11 10 10 10 10 10 10 10 10 10 10 9 10 10 10 10 10
9 9 9 10 10 10 10 10 11 10 11 11 11 10 11 10 10 10 10 10 10 10 10 11 11 10 10 10 10 10 10 10 9 9 9 9 9 9 9 10 10 10 10
8 8 9 9 9 10 10 10 10 10 10 10 9 10 11 10 10 10 10 10 10 10 10 10 9 10 10 10 10 9 9 9 9 9 9 9 9 9 9 9 9 10 10
8 8 8 8 9 8 8 9 9 9 9 9 9 9 9 10 9 9 10 10 9 9 9 9 9 9 9 9 9 9 9 8 8 8 9 9 9 9 9 9 9 9 9
8 8 7 8 8 9 9 9 9 9 9 9 9 9 9 9 9 9 9 9 9 9 9 9 9 9 8 9 8 8 8 8 8 8 8 8 8 8 8 8 7 7 7
8 8 8 8 8 9 9 9 9 9 8 8 8 8 8 8 8 9 9 8 9 8 8 8 8 8 8 7 8 8 8 7 7 7 7 7 7 6 5 5 5 4 4
6 7 7 8 8 8 7 7 7 7 7 7 8 8 7 7 7 6 7 7 8 7 7 6 5 6 7 7 7 6 6 6 6 5 5 5 5 4 4 4 3 3 2
5 6 7 7 7 6 6 6 6 6 6 6 6 8 5 4 6 6 5 6 6 6 5 5 5 5 5 4 4 3 5 4 4 4 4 3 3 4 4 3 1 1 1
4 4 5 5 5 5 4 4 5 5 5 6 5 7 4 4 5 4 5 5 4 4 3 3 3 3 3 3 2 2 1 2 2 3 2 3 2 3 3 2 1 1 0
4 5 4 5 5 5 3 5 5 4 4 6 6 5 4 3 3 3 3 3 3 3 3 3 3 2 2 1 1 1 0 -1 -4 2 -1 -2 -1 1 0 -0 -1 -1 -1
4 4 4 4 4 4 4 4 3 4 4 4 4 4 3 3 3 2 2 2 2 2 2 1 1 0 1 1 0 -0 -3 -4 -4 -2 -4 -4 -1 -1 -1 -1 -1 -1 -0
4 4 4 4 4 4 4 3 3 3 3 3 2 2 2 2 2 2 2 1 1 1 1 1 1 -0 -1 -1 -3 -5 -5 -4 -4 -4 -4 -4 -2 -3 -1 -1 -1 -2 -2
4 4 4 4 4 3 3 3 3 2 2 2 2 2 1 1 1 1 1 1 1 1 0 0 -0 -1 -1 -1 -3 -6 -5 -5 -5 -5 -4 -4 -4 -4 -1 -1 -1 -1 -1
4 4 4 4 4 3 3 3 3 2 2 1 1 0 0 1 1 1 1 1 1 0 0 -0 -1 -1 -2 -2 -4 -6 -7 -6 -5 -6 -5 -5 -3 -4 -5 -2 -2 -2 -2
Height
1525 1526 1526 1527 1529 1530 1532 1533 1534 1535 1535 1536 1536 1538 1538 1539 1540 1540 1541 1541 1541 1541 1541 1541 1540 1539 1539 1538 1538 1537 1537 1537 1536 1535 1535 1534 1533 1532 1532 1531 1531 1530 1529
1521 1522 1522 1523 1524 1525 1527 1529 1530 1530 1531 1532 1532 1533 1535 1536 1536 1537 1538 1538 1539 1539 1539 1539 1538 1537 1536 1536 1535 1535 1534 1534 1534 1533 1532 1532 1531 1529 1528 1528 1527 1527 1526
1515 1517 1517 1518 1519 1521 1523 1524 1525 1525 1526 1528 1528 1529 1530 1532 1532 1533 1534 1535 1535 1535 1535 1535 1535 1534 1533 1533 1532 1532 1531 1531 1530 1530 1530 1529 1527 1527 1526 1525 1524 1523 1522
1510 1511 1512 1513 1515 1516 1517 1519 1520 1522 1522 1522 1523 1525 1526 1528 1529 1529 1530 1531 1531 1531 1531 1531 1531 1531 1530 1529 1528 1528 1527 1527 1526 1526 1525 1525 1524 1522 1522 1521 1521 1520 1518
1503 1505 1506 1507 1509 1511 1512 1513 1515 1516 1516 1517 1518 1520 1521 1523 1524 1526 1526 1526 1526 1526 1526 1526 1526 1526 1526 1525 1524 1523 1522 1522 1522 1522 1521 1520 1520 1520 1518 1517 1516 1516 1515
1497 1498 1500 1501 1503 1504 1505 1507 1508 1510 1510 1512 1514 1515 1517 1518 1519 1520 1521 1521 1521 1521 1520 1520 1520 1520 1520 1520 1520 1519 1518 1517 1516 1517 1516 1515 1515 1515 1514 1513 1511 1511 1510
1489 1491 1492 1494 1497 1498 1499 1501 1503 1504 1505 1507 1509 1510 1511 1512 1513 1514 1514 1514 1514 1514 1514 1513 1514 1514 1514 1514 1514 1514 1513 1512 1512 1511 1511 1511 1510 1509 1509 1507 1505 1504 1504
1483 1483 1486 1487 1490 1492 1493 1494 1496 1497 1498 1501 1502 1504 1505 1507 1506 1507 1508 1508 1507 1508 1507 1506 1507 1507 1507 1507 1508 1508 1507 1507 1506 1505 1505 1505 1504 1504 1503 1502 1500 1498 1496
1475 1478 1479 1481 1483 1485 1486 1489 1490 1491 1493 1496 1497 1499 1499 1499 1499 1499 1499 1500 1500 1500 1500 1499 1499 1499 1500 1500 1500 1501 1501 1501 1500 1499 1499 1499 1499 1498 1496 1495 1493 1491 1490
1469 1470 1472 1474 1477 1478 1479 1482 1485 1485 1488 1489 1491 1493 1493 1494 1494 1493 1492 1492 1492 1492 1492 1493 1493 1492 1492 1492 1492 1493 1494 1494 1494 1493 1493 1493 1492 1491 1489 1488 1487 1484 1483
1464 1465 1465 1467 1469 1472 1473 1477 1478 1479 1482 1484 1485 1486 1487 1487 1488 1488 1484 1484 1485 1484 1484 1486 1486 1485 1484 1484 1486 1487 1487 1489 1489 1488 1488 1486 1485 1483 1482 1480 1478 1477 1474
1457 1460 1459 1460 1462 1465 1467 1470 1473 1474 1475 1477 1478 1479 1481 1481 1481 1482 1480 1478 1477 1476 1476 1476 1477 1478 1478 1477 1478 1478 1480 1481 1480 1481 1480 1479 1478 1476 1473 1472 1471 1468 1466
1452 1455 1454 1455 1456 1459 1461 1463 1466 1468 1469 1471 1472 1474 1474 1475 1476 1476 1476 1474 1471 1470 1470 1469 1469 1473 1473 1473 1473 1473 1473 1473 1473 1473 1473 1472 1470 1469 1467 1464 1463 1460 1458
1449 1449 1449 1450 1452 1453 1455 1457 1460 1462 1463 1464 1466 1467 1468 1469 1470 1471 1470 1469 1467 1464 1464 1463 1465 1464 1466 1466 1465 1467 1467 1466 1467 1466 1465 1463 1462 1461 1459 1457 1455 1452 1450
1444 1445 1445 1446 1448 1449 1450 1452 1455 1457 1458 1459 1460 1461 1462 1462 1464 1464 1463 1464 1465 1461 1458 1456 1461 1458 1458 1459 1460 1461 1459 1459 1459 1458 1456 1455 1454 1452 1450 1447 1445 1442 1440
1441 1442 1442 1442 1444 1445 1447 1448 1450 1453 1453 1455 1455 1456 1457 1457 1457 1457 1457 1456 1456 1456 1453 1454 1452 1454 1452 1453 1451 1453 1452 1453 1452 1450 1448 1446 1444 1441 1439 1436 1434 1432 1429
1438 1438 1438 1439 1441 1442 1443 1445 1447 1448 1449 1450 1450 1450 1450 1450 1450 1450 1450 1449 1451 1450 1447 1449 1448 1447 1446 1447 1446 1447 1446 1444 1443 1441 1438 1437 1434 1432 1429 1425 1423 1421 1419
1435 1436 1436 1437 1438 1439 1440 1441 1441 1441 1442 1442 1443 1444 1443 1444 1444 1442 1443 1442 1444 1442 1443 1443 1443 1442 1442 1442 1440 1440 1439 1437 1434 1432 1430 1427 1424 1422 1419 1416 1414 1411 1408
1433 1433 1434 1434 1435 1436 1436 1436 1437 1437 1437 1437 1438 1437 1438 1439 1438 1437 1436 1437 1438 1437 1437 1438 1437 1437 1437 1435 1434 1432 1431 1430 1428 1425 1423 1419 1416 1413 1410 1408 1404 1401 1399
1431 1431 1431 1432 1432 1434 1433 1433 1434 1435 1435 1435 1435 1434 1436 1436 1434 1436 1437 1436 1436 1436 1436 1436 1435 1433 1432 1429 1427 1425 1423 1422 1420 1420 1416 1412 1408 1406 1403 1399 1396 1393 1390
1432 1432 1432 1433 1432 1433 1434 1432 1433 1433 1434 1433 1432 1429 1435 1436 1436 1436 1436 1435 1434 1433 1432 1431 1430 1428 1427 1424 1421 1419 1417 1415 1414 1413 1408 1406 1402 1399 1396 1393 1389 1385 1382
1433 1433 1433 1433 1434 1433 1430 1431 1432 1433 1433 1432 1431 1432 1434 1435 1435 1434 1433 1432 1432 1430 1429 1426 1424 1423 1422 1419 1417 1415 1412 1409 1405 1408 1401 1397 1396 1392 1388 1385 1381 1378 1375
1435 1435 1434 1434 1433 1433 1433 1432 1432 1432 1432 1431 1431 1432 1432 1433 1433 1432 1431 1430 1429 1426 1424 1423 1421 1420 1418 1416 1413 1411 1409 1408 1405 1402 1399 1393 1391 1386 1383 1380 1377 1373 1369
1435 1435 1434 1434 1434 1433 1432 1432 1432 1431 1431 1431 1430 1430 1431 1431 1431 1430 1429 1428 1427 1424 1423 1421 1419 1418 1415 1413 1410 1408 1406 1404 1401 1399 1396 1388 1386 1381 1378 1376 1372 1368 1366
1436 1435 1435 1434 1433 1432 1431 1431 1430 1430 1430 1430 1430 1430 1431 1430 1430 1429 1427 1426 1424 1422 1421 1419 1417 1415 1412 1409 1407 1404 1403 1399 1395 1393 1390 1386 1382 1376 1372 1368 1367 1366 1362
1434 1434 1433 1433 1432 1432 1431 1431 1430 1430 1430 1429 1429 1429 1428 1427 1427 1426 1425 1423 1421 1419 1417 1415 1414 1411 1408 1405 1403 1401 1398 1395 1393 1388 1388 1385 1379 1374 1367 1362 1361 1358 1355
Wind_Speed
23 22 22 21 21 19 18 20 23 23 21 20 22 22 21 19 17 19 17 16 16 16 15 14 14 15 14 14 13 13 13 12 11 10 11 11 12 13 12 13 13 14 14
26 24 23 23 23 23 21 21 23 25 24 22 23 24 23 22 19 19 19 17 20 19 18 17 17 17 17 17 16 14 15 15 14 13 13 13 12 13 12 12 13 15 16
29 28 29 26 26 24 24 24 23 25 24 23 23 20 21 22 22 20 22 23 22 22 21 21 21 19 18 19 19 18 18 17 17 17 16 14 13 12 12 12 13 14 16
30 29 29 30 26 27 28 28 25 25 26 23 23 23 21 21 22 21 24 27 26 25 25 24 22 20 19 19 20 21 21 21 20 19 18 17 16 13 13 12 13 14 16
31 32 30 34 30 30 32 31 29 27 29 28 29 23 23 23 23 25 25 22 25 26 26 25 25 24 23 22 21 22 24 23 23 22 21 19 19 17 14 12 12 15 18
32 34 33 35 34 33 34 33 32 29 29 32 29 27 26 26 26 27 26 27 26 28 30 31 29 28 27 26 25 25 25 26 25 24 23 22 21 19 17 16 17 20 22
34 34 33 33 35 36 34 35 33 31 30 27 29 28 27 26 27 26 26 27 28 27 28 30 32 33 32 29 28 27 27 28 26 25 25 24 23 23 21 23 24 24 26
41 35 35 35 34 35 35 34 31 32 28 25 23 22 23 25 27 29 28 28 28 29 31 31 31 30 31 33 33 29 29 25 25 24 23 22 23 22 25 26 26 27 26
33 41 37 35 35 37 36 34 31 30 26 24 24 19 8 13 16 17 17 20 23 25 27 27 25 28 31 34 35 32 28 24 23 18 20 22 24 25 26 28 29 29 31
25 28 38 36 33 33 34 33 31 33 27 25 25 26 27 27 17 18 22 21 21 25 26 27 29 32 30 31 30 29 28 23 19 18 22 27 26 29 31 30 29 30 32
27 23 25 32 33 32 32 30 32 33 30 29 28 25 25 26 26 30 28 26 27 28 30 31 30 32 30 27 29 30 24 24 22 23 26 29 32 33 32 33 31 33 34
25 26 26 22 31 35 35 32 28 33 31 29 29 25 25 26 26 24 28 29 33 34 30 24 27 31 30 31 30 26 25 23 26 28 29 29 31 30 31 32 32 30 29
24 23 22 22 24 30 34 36 35 33 32 30 28 26 25 29 31 30 31 33 32 35 29 26 23 26 28 25 25 30 30 26 26 28 30 30 31 31 31 30 30 31 32
21 21 21 20 21 21 22 25 28 28 26 24 24 25 26 26 27 30 30 30 29 31 29 30 26 24 22 24 22 24 24 23 25 29 29 30 31 34 36 35 36 36 38
20 21 19 18 18 22 23 21 24 24 22 22 22 23 23 24 26 30 30 28 30 24 24 24 21 22 20 19 21 23 20 27 28 27 28 31 35 38 40 41 41 41 39
20 19 19 17 15 17 15 17 19 22 23 23 23 24 25 25 26 29 29 26 28 31 23 18 19 18 19 21 19 25 24 24 26 30 35 38 40 42 42 42 42 41 39
15 14 13 13 16 16 14 16 19 20 22 24 28 27 28 29 30 24 27 27 29 24 20 23 22 20 13 21 20 21 27 29 33 35 36 38 39 40 40 40 40 39 38
12 14 13 11 13 16 17 21 23 23 19 19 21 22 24 25 24 29 26 19 23 18 16 17 22 22 22 24 26 27 28 29 31 32 34 35 34 35 34 34 34 34 34
13 13 12 12 14 14 15 14 13 10 10 12 16 17 15 15 14 10 13 12 16 15 16 17 19 20 21 22 24 24 26 26 27 28 29 29 29 30 30 31 31 31 30
9 10 7 7 6 6 6 11 11 10 9 9 7 7 5 6 4 9 8 8 9 10 11 13 15 17 18 19 21 23 26 26 27 25 25 25 26 28 28 28 27 28 29
5 6 6 4 1 1 3 4 2 2 1 2 5 5 4 6 5 5 6 7 8 9 10 11 13 15 18 20 22 24 26 28 28 25 24 25 28 27 26 24 25 23 24
4 4 2 2 1 3 2 4 1 1 2 3 3 2 3 4 5 7 8 9 10 12 14 15 16 18 20 22 23 25 26 27 28 25 30 31 27 27 24 21 22 22 26
3 2 2 2 2 1 1 1 0 2 2 2 3 4 4 6 7 7 8 10 12 13 15 16 17 19 21 23 23 24 24 23 26 28 27 32 28 26 23 21 22 24 21
2 2 1 1 1 2 2 2 2 3 3 2 3 4 4 6 7 8 9 11 12 14 15 16 17 19 21 22 20 19 21 23 24 27 24 28 26 25 26 23 19 13 16
4 3 3 3 4 4 4 4 4 3 4 4 5 6 6 7 9 11 13 13 13 13 14 16 17 19 22 23 17 18 18 21 24 25 23 19 25 32 29 24 10 14 22
6 5 5 5 5 5 6 6 5 5 5 6 7 8 10 11 12 14 15 15 16 16 17 17 17 19 21 21 17 17 19 21 22 23 18 27 28 28 24 21 25 25 25
Wind_Direction
244 240 241 233 236 238 248 251 251 248 247 246 244 242 238 236 230 235 250 255 261 265 273 276 279 275 274 273 274 267 262 267 273 280 290 304 304 304 295 297 295 297 301
245 240 237 238 242 244 253 257 257 253 251 252 250 246 246 241 239 243 252 257 259 264 270 274 280 279 275 273 273 271 265 266 272 280 287 294 301 300 293 294 297 296 298
253 244 239 242 243 245 252 256 259 251 247 246 248 244 245 245 249 253 262 262 260 264 267 272 278 276 278 276 270 270 267 266 272 277 281 285 289 296 296 293 295 299 300
246 244 248 245 245 245 250 255 257 250 248 244 244 240 243 247 252 260 270 263 260 263 266 269 273 273 276 277 273 267 268 270 272 275 275 275 276 279 286 291 294 299 304
240 242 246 245 244 244 250 254 254 252 246 244 246 249 249 250 253 259 266 265 264 265 265 265 266 269 272 273 273 271 268 268 269 271 273 272 273 276 276 284 293 297 299
243 245 247 245 242 243 248 253 250 247 249 252 254 247 250 252 257 261 266 272 273 271 274 267 265 267 270 271 274 274 272 268 269 272 272 268 269 271 265 280 292 299 300
240 245 245 245 245 248 251 250 250 249 249 250 249 253 253 245 253 259 263 267 267 271 272 267 265 268 270 268 272 271 272 272 272 271 271 270 272 267 267 283 288 295 298
243 244 246 247 245 245 244 246 246 243 242 237 238 245 253 251 254 257 262 265 270 276 273 272 266 268 270 268 268 267 269 272 269 269 271 272 265 261 271 277 282 289 293
247 245 250 248 249 247 248 247 245 241 241 239 244 236 223 237 264 274 273 272 271 268 272 270 268 270 268 264 262 262 265 264 268 268 275 278 272 281 283 284 288 289 290
262 254 246 248 250 252 251 248 242 243 238 239 241 242 246 252 258 284 280 278 271 266 266 271 275 271 265 265 263 256 256 254 246 261 268 270 276 279 282 287 284 285 288
262 261 263 249 247 251 251 246 242 245 245 248 252 254 256 255 258 263 275 275 278 272 275 280 270 268 259 257 257 252 254 252 259 269 275 273 278 282 284 285 283 284 284
266 264 264 270 250 249 254 250 246 250 251 253 257 254 253 254 261 264 267 272 284 281 286 273 280 268 256 258 252 244 245 264 269 271 271 275 281 281 283 285 287 291 292
265 266 267 266 260 251 255 258 258 255 252 253 255 255 255 261 265 267 269 275 278 274 275 273 272 258 263 262 260 271 268 268 264 267 273 277 281 280 281 284 285 288 290
264 269 273 260 261 258 252 257 255 256 257 252 253 256 259 267 270 271 271 273 269 274 271 264 262 264 264 270 266 262 258 256 267 272 277 279 277 286 287 283 284 286 288
266 269 274 258 257 255 252 258 253 253 258 262 265 263 269 270 275 274 270 270 273 263 266 251 260 269 263 252 256 259 251 278 271 261 269 274 282 284 282 283 285 285 283
271 274 273 257 251 259 263 254 251 251 252 258 266 267 275 279 274 277 276 268 261 256 255 269 259 243 235 246 240 265 263 258 265 272 277 280 282 283 284 284 283 282 280
258 263 271 260 254 258 258 258 259 261 262 262 263 270 270 271 272 267 259 250 261 241 249 259 257 234 242 268 258 266 272 277 279 281 282 283 284 286 286 285 283 281 279
260 261 256 249 260 264 264 263 267 260 258 266 262 264 263 268 267 247 255 234 251 231 238 247 263 264 271 277 282 283 282 284 286 287 288 289 291 291 290 288 285 281 279
251 249 248 256 266 264 262 254 249 248 249 251 250 235 219 223 220 227 220 239 255 263 271 277 283 284 287 290 289 289 289 289 290 292 294 296 294 292 289 286 284 284 285
196 192 205 227 214 223 233 238 220 216 219 207 198 232 273 290 262 273 289 283 287 288 287 285 287 292 296 299 303 304 299 301 302 305 303 301 297 294 293 290 291 289 292
157 115 121 152 208 305 279 191 160 104 222 272 286 286 294 278 276 262 275 288 294 298 301 302 305 307 308 309 313 315 314 313 311 314 310 306 305 301 300 303 297 291 297
65 74 117 145 178 268 288 55 104 180 220 257 269 228 253 301 311 319 324 325 320 319 315 314 315 313 315 316 314 313 313 319 330 325 321 316 318 320 319 310 309 307 303
18 36 43 51 39 29 356 20 214 277 293 301 283 280 285 291 301 308 319 323 320 320 320 322 319 316 311 309 308 309 314 317 312 318 319 313 326 324 322 309 314 313 302
285 290 292 283 287 290 295 314 313 297 290 268 265 274 283 288 295 304 316 323 326 323 319 317 314 311 310 311 309 308 306 302 304 311 316 303 325 323 327 328 328 329 327
253 261 263 271 283 287 287 291 294 295 298 296 293 292 295 306 314 315 317 318 319 317 316 315 315 313 313 314 311 302 305 303 310 314 327 316 320 318 327 328 327 322 323
255 258 263 274 281 285 289 287 291 293 293 297 301 305 311 307 305 307 310 316 319 320 323 323 320 318 316 313 310 304 298 291 300 316 314 315 320 326 323 324 317 317 318